Location: Bennemühlen
(52.5740°N, 9.7135°E)
Time: 05:58:24
(UTC+00:00)

A-11 Canister half - Pass Details

Date: 23 February 2026
Orbit: 1512 x 1687 km, 47.2° (Epoch: 5 March)

Event Time Altitude Azimuth Distance (km) Brightness Sun altitude
Rises 22:40:09 0° 272° (W) 4,936 11.9 -45.6°
Reaches altitude 10° 22:43:23 10° 270° (W) 3,937 11.2 -45.8°
Enters shadow 22:45:54 20° 266° (W) 3,193 10.7 -45.9°
Maximum altitude 22:53:14 61° 194° (SSW) 1,829 - -46.2°
Drops below altitude 10° 23:02:45 10° 117° (ESE) 3,814 - -46.5°
Sets 23:05:50 0° 114° (ESE) 4,774 - -46.6°
